Retour au catalogue

CZ-6A DEB

ActifSSO
NORAD 56595·DEBRIS·🇨🇳 China

Lancé Nov 11, 2022 depuis Taiyuan Satellite Launch Center

Loading…

Prochains Passages (prochaines 24 heures)

TLE

FraisSource: Space-Track

Époque: Sep 13, 2026, 17:35 UTC

1 56595U 22151ADT 26256.73306314  .00000836  00000-0  36939-3 0  9999
2 56595  98.7354 258.3607 0130771 284.0853  74.5819 14.21491385175474

Suivez CZ-6A DEB en temps réel avec AllMySat

Download on the App Store